Abilene, TX

7:32 AM CST on February 12, 2016 (GMT -0600)
Dyess Air Force Base

Weather History for KDYS - October, 2012

Change the Weather History Date:

Friday, October 12, 2012

  Actual Average Record
Temperature  
Mean Temperature 76 °F -  
Max Temperature 84 °F 76 °F 90 °F (2015)
Min Temperature 69 °F 56 °F 46 °F (2014)
Cooling Degree Days 11    
Growing Degree Days 26 (Base 50)    
Moisture  
Dew Point 67 °F    
Average Humidity 77    
Maximum Humidity 94    
Minimum Humidity 54    
Precipitation  
Precipitation 0.00 in - - ()
Sea Level Pressure  
Sea Level Pressure 30.04 in    
Wind  
Wind Speed 13 mph (SSE)    
Max Wind Speed 24 mph    
Max Gust Speed 30 mph    
Visibility 10 miles    
Events      
Averages and records for this station are not official NWS values.
T = Trace of Precipitation, MM = Missing Value Source: NWS Daily Summary

Daily Weather History Graph

Daily Weather History Graph

Search for Another Location

Airport or City:

Trip Planner

Search our weather history database for the weather conditions in past years. The results will help you decide how hot, cold, wet, or windy it might be!

Date:

Astronomy

Oct. 12, 2012 Rise Set
Actual Time 7:41 AM CDT 7:09 PM CDT
Civil Twilight 7:16 AM CDT 7:34 PM CDT
Nautical Twilight 6:48 AM CDT 8:02 PM CDT
Astronomical Twilight 6:19 AM CDT 8:31 PM CDT
Moon 4:35 AM CDT 5:13 PM CDT
Length of Visible Light 12h 17m
Length of Day
11h 28m
Waning Crescent, 10% of the Moon is Illuminated
Oct 12
Waning Crescent
Oct 15
New
Oct 21
First Quarter
Oct 29
Full
Nov 6
Last Quarter

Hourly Weather History & Observations

Time (CDT) Temp. Heat Index Dew Point Humidity Pressure Visibility Wind Dir Wind Speed Gust Speed Precip Events Conditions
12:55 AM 72.1 °F - 69.3 °F 91% 30.03 in 10.0 mi SSE 15.0 mph - N/A   Scattered Clouds
12:57 AM 71.6 °F - 69.8 °F 94% 30.03 in 10.0 mi SSE 15.0 mph - N/A   Mostly Cloudy
1:55 AM 72.7 °F - 69.6 °F 90% 30.03 in 10.0 mi SSE 13.8 mph - N/A   Overcast
2:55 AM 72.1 °F - 69.1 °F 90% 30.03 in 10.0 mi SSE 12.7 mph - N/A   Overcast
3:55 AM 71.6 °F - 68.9 °F 91% 30.04 in 10.0 mi SSE 6.9 mph - N/A   Overcast
4:55 AM 71.6 °F - 68.9 °F 91% 30.03 in 10.0 mi SSE 6.9 mph - N/A   Overcast
5:37 AM 71.6 °F - 68.0 °F 88% 30.03 in 10.0 mi SSE 11.5 mph - N/A   Overcast
5:55 AM 71.4 °F - 68.2 °F 89% 30.04 in 10.0 mi SSE 11.5 mph - N/A   Overcast
6:55 AM 70.2 °F - 67.8 °F 92% 30.04 in 10.0 mi SE 8.1 mph - N/A   Mostly Cloudy
7:14 AM 69.8 °F - 68.0 °F 94% 30.05 in 10.0 mi SSE 9.2 mph - N/A   Overcast
7:23 AM 69.8 °F - 68.0 °F 94% 30.05 in 10.0 mi SSE 9.2 mph - N/A   Overcast
7:50 AM 71.6 °F - 68.0 °F 88% 30.06 in 10.0 mi SSE 9.2 mph - N/A   Overcast
7:51 AM 69.8 °F - 68.0 °F 94% 30.06 in 10.0 mi SSE 9.2 mph - N/A   Overcast
7:55 AM 70.5 °F - 67.3 °F 89% 30.06 in 10.0 mi SSE 10.4 mph - N/A   Overcast
8:38 AM 71.6 °F - 68.0 °F 88% 30.08 in 10.0 mi SSE 8.1 mph - N/A   Scattered Clouds
8:55 AM 72.7 °F - 67.3 °F 83% 30.08 in 10.0 mi SSE 8.1 mph - N/A   Mostly Cloudy
9:03 AM 73.4 °F - 68.0 °F 83% 30.09 in 10.0 mi SSE 10.4 mph - N/A   Mostly Cloudy
9:07 AM 73.4 °F - 68.0 °F 83% 30.09 in 10.0 mi SSE 8.1 mph - N/A   Overcast
9:55 AM 73.6 °F - 66.9 °F 80% 30.10 in 10.0 mi SSE 13.8 mph - N/A   Overcast
10:17 AM 73.4 °F - 66.2 °F 78% 30.10 in 10.0 mi SSE 12.7 mph - N/A   Overcast
10:18 AM 73.4 °F - 66.2 °F 78% 30.10 in 10.0 mi SSE 12.7 mph - N/A   Overcast
10:50 AM 75.2 °F - 66.2 °F 73% 30.09 in 10.0 mi South 13.8 mph - N/A   Overcast
10:55 AM 75.0 °F - 66.6 °F 75% 30.09 in 10.0 mi South 18.4 mph 23.0 mph N/A   Overcast
11:25 AM 77.0 °F - 66.2 °F 69% 30.08 in 10.0 mi South 15.0 mph 21.9 mph N/A   Overcast
11:27 AM 77.0 °F - 66.2 °F 69% 30.08 in 10.0 mi South 17.3 mph 21.9 mph N/A   Overcast
11:55 AM 78.6 °F - 67.5 °F 68% 30.08 in 10.0 mi South 18.4 mph - N/A   Overcast
12:55 PM 80.2 °F 82.6 °F 66.9 °F 64% 30.05 in 10.0 mi South 24.2 mph - N/A   Mostly Cloudy
1:55 PM 81.0 °F 83.3 °F 66.7 °F 62% 30.04 in 10.0 mi South 17.3 mph - N/A   Mostly Cloudy
1:58 PM 80.6 °F 82.7 °F 66.2 °F 61% 30.04 in 10.0 mi South 18.4 mph 24.2 mph N/A   Mostly Cloudy
2:55 PM 80.2 °F 82.2 °F 65.8 °F 61% 30.02 in 10.0 mi South 15.0 mph - N/A   Overcast
3:55 PM 82.6 °F 84.5 °F 65.5 °F 56% 30.00 in 10.0 mi SSE 13.8 mph - N/A   Mostly Cloudy
4:55 PM 83.1 °F 84.8 °F 64.9 °F 54% 29.99 in 10.0 mi SSE 12.7 mph - N/A   Mostly Cloudy
5:55 PM 82.8 °F 84.3 °F 64.4 °F 54% 29.98 in 10.0 mi SE 12.7 mph - N/A   Overcast
6:55 PM 81.0 °F 82.5 °F 63.7 °F 56% 29.97 in 10.0 mi SE 13.8 mph - N/A   Clear
7:55 PM 77.9 °F - 62.8 °F 60% 29.97 in 10.0 mi SE 15.0 mph - N/A   Clear
8:55 PM 76.8 °F - 63.7 °F 64% 29.98 in 10.0 mi SE 17.3 mph - N/A   Partly Cloudy
9:55 PM 76.1 °F - 63.9 °F 66% 29.97 in 10.0 mi SE 21.9 mph 28.8 mph N/A   Overcast
10:55 PM 75.0 °F - 63.7 °F 68% 29.99 in 10.0 mi SSE 21.9 mph 28.8 mph N/A   Mostly Cloudy
11:55 PM 74.5 °F - 64.2 °F 70% 29.98 in 10.0 mi SSE 20.7 mph 29.9 mph N/A   Mostly Cloudy